Αρχική σελίδα
METAR-TAF:

METAR-TAF

Αεροδρόμια :

Cape Parry, Βορειοδυτικά Εδάφη, Καναδάς

γεωγραφικό πλάτος: 70-06N, γεωγραφικό μήκος: 124-43W, υψόμετρο: 87 μ

Παρών καιρός

Η αναφορά έγινε 17 λεπτά πριν, στις 16:00 UTC
Άνεμος 23 kt από Α/BA
Θερμοκρασία -15°C
Υγρασία 85%
Πίεση 1000 hPa
Αρκετά νέφη σε ύψος 200 πόδια

METAR: CZCP 181600Z AUTO 07023KT ////SM //// BKN002 M15/M17 A2952

Χρόνος: 10:17 (16:17 UTC)


TAF: λείπει

Μετεωρολογικές αναφορές και προγνώσεις για περισσότερα από 4000 αεροδρόμια (δελτία METAR και TAF).

Οι διαθέσιμοι σταθμοί απεικονίζονται στο χάρτη με κίτρινες και κόκκινες κουκκίδες.

Μετακινήστε το ποντίκι πάνω από τις κουκκίδες για να δείτε το όνομα του σταθμού.

Στη συνέχεια, κάντε κλικ για να δείτε τις μετεωρολογικές αναφορές και τις προγνώσεις καιρού.

Για να αλλάξετε το χάρτη: κάντε κλικ στα πράσινα κουμπιά με τον μαύρο σταυρό για να ζουμάρετε, στο πράσινο κουμπί με την παύλα για να αφαιρέσετε το ζουμ ή στα πράσινα βέλη για να αντιπαραβάλλετε χάρτες.


METAR-TAF: